BAW40M GCLP-EGLL

Flight info

Callsign BAW40M
Flight time 3h 18m
Altitude 38000
Route VASTO DCT NIDEB DCT TIGGI DCT PINEK/N0492F400 DCT KORUL DCT FEJAC DCT JSY/N0485F340 DCT REVTU UP87 ROXOG
Aircraft A35K/H-SDE2E3GHIJ3J4J5LM1ORWXY/LB1D1

Departure

Time 2026-05-04 21:14
Airport Gran Canaria Airport (GCLP)

Arrival

Time 2026-05-05 00:32
Airport London Heathrow Airport (EGLL)
Time Latitude Longitude Altitude Speed Heading
2026-05-04 20:38 27.93569 -15.38923 94 ft 0 kts 291°
2026-05-04 21:02 27.93568 -15.38921 94 ft 3 kts 291°
2026-05-04 21:02 27.93559 -15.38894 92 ft 2 kts 292°
2026-05-04 21:02 27.93553 -15.38869 91 ft 4 kts 263°
2026-05-04 21:02 27.93563 -15.38847 90 ft 4 kts 204°
2026-05-04 21:03 27.93588 -15.38838 90 ft 4 kts 197°
2026-05-04 21:03 27.93596 -15.38836 91 ft 0 kts 201°
2026-05-04 21:07 27.93594 -15.38837 91 ft 2 kts 201°
2026-05-04 21:07 27.93569 -15.38847 91 ft 6 kts 201°
2026-05-04 21:08 27.93503 -15.38876 92 ft 18 kts 201°
2026-05-04 21:08 27.93484 -15.38884 90 ft 0 kts 201°
2026-05-04 21:08 27.93471 -15.38877 93 ft 8 kts 152°
2026-05-04 21:09 27.93432 -15.38807 90 ft 14 kts 118°
2026-05-04 21:09 27.93325 -15.38790 86 ft 21 kts 199°
2026-05-04 21:09 27.93178 -15.38857 82 ft 25 kts 202°
2026-05-04 21:09 27.93017 -15.38936 89 ft 26 kts 202°
2026-05-04 21:10 27.92842 -15.39013 91 ft 28 kts 199°
2026-05-04 21:10 27.92660 -15.39093 97 ft 29 kts 201°
2026-05-04 21:10 27.92473 -15.39177 103 ft 30 kts 201°
2026-05-04 21:10 27.92276 -15.39260 105 ft 28 kts 201°
2026-05-04 21:11 27.92115 -15.39307 102 ft 24 kts 181°
2026-05-04 21:11 27.91946 -15.39279 98 ft 19 kts 140°
2026-05-04 21:11 27.91943 -15.39221 95 ft 6 kts 44°
2026-05-04 21:11 27.91995 -15.39186 94 ft 4 kts 25°
2026-05-04 21:14 27.92204 -15.39087 89 ft 76 kts 21°
2026-05-04 21:14 27.92956 -15.38757 63 ft 153 kts 20°
2026-05-04 21:14 27.94025 -15.38273 721 ft 170 kts 22°
2026-05-04 21:14 27.95149 -15.37769 1629 ft 183 kts 19°
2026-05-04 21:15 27.96447 -15.37212 2216 ft 213 kts 20°
2026-05-04 21:15 27.97879 -15.36600 3059 ft 228 kts 20°
2026-05-04 21:15 27.99421 -15.35938 3644 ft 246 kts 20°
2026-05-04 21:15 28.01039 -15.35244 4478 ft 255 kts 20°
2026-05-04 21:16 28.02735 -15.34515 5336 ft 266 kts 20°
2026-05-04 21:16 28.04497 -15.33757 6195 ft 278 kts 19°
2026-05-04 21:16 28.06378 -15.32949 6844 ft 295 kts 20°
2026-05-04 21:16 28.08295 -15.32111 7945 ft 296 kts 19°
2026-05-04 21:17 28.10228 -15.31269 9103 ft 298 kts 19°
2026-05-04 21:17 28.12179 -15.30419 10173 ft 304 kts 19°
2026-05-04 21:17 28.14232 -15.29561 10769 ft 327 kts 15°
2026-05-04 21:17 28.16514 -15.28841 11164 ft 353 kts 11°
2026-05-04 21:18 28.18978 -15.28149 11643 ft 374 kts 11°
2026-05-04 21:18 28.20670 -15.27675 12105 ft 382 kts 11°
2026-05-04 21:18 28.23276 -15.26938 12903 ft 391 kts 10°
2026-05-04 21:18 28.25947 -15.26179 13709 ft 400 kts 10°
2026-05-04 21:19 28.28677 -15.25402 14462 ft 407 kts
2026-05-04 21:19 28.31431 -15.24559 15277 ft 414 kts 13°
2026-05-04 21:19 28.34096 -15.23241 16103 ft 424 kts 26°
2026-05-04 21:19 28.36631 -15.21453 16941 ft 432 kts 30°
2026-05-04 21:20 28.39151 -15.19557 17827 ft 438 kts 30°
2026-05-04 21:20 28.41703 -15.17630 18688 ft 442 kts 30°
2026-05-04 21:20 28.44284 -15.15690 19436 ft 448 kts 29°
2026-05-04 21:20 28.46900 -15.13728 20179 ft 454 kts 29°
2026-05-04 21:21 28.49553 -15.11740 20939 ft 459 kts 28°
2026-05-04 21:21 28.52242 -15.09725 21731 ft 465 kts 28°
2026-05-04 21:21 28.54956 -15.07691 22511 ft 471 kts 28°
2026-05-04 21:21 28.57704 -15.05631 23286 ft 477 kts 28°
2026-05-04 21:22 28.60455 -15.03567 24003 ft 482 kts 28°
2026-05-04 21:22 28.63269 -15.01455 24685 ft 487 kts 28°
2026-05-04 21:22 28.66123 -14.99311 25358 ft 492 kts 28°
2026-05-04 21:22 28.68989 -14.97156 26018 ft 497 kts 28°
2026-05-04 21:23 28.71892 -14.94973 26707 ft 502 kts 28°
2026-05-04 21:23 28.74821 -14.92768 27375 ft 507 kts 28°
2026-05-04 21:23 28.77774 -14.90543 28050 ft 511 kts 28°
2026-05-04 21:23 28.80760 -14.88292 28702 ft 516 kts 28°
2026-05-04 21:24 28.83767 -14.86024 29346 ft 521 kts 28°
2026-05-04 21:24 28.86808 -14.83729 29962 ft 525 kts 28°
2026-05-04 21:24 28.89871 -14.81419 30496 ft 530 kts 28°
2026-05-04 21:24 28.92963 -14.79083 30960 ft 536 kts 28°
2026-05-04 21:25 28.96084 -14.76720 31406 ft 541 kts 28°
2026-05-04 21:25 28.99233 -14.74334 31847 ft 545 kts 28°
2026-05-04 21:25 29.02407 -14.71929 32319 ft 549 kts 29°
2026-05-04 21:25 29.05598 -14.69508 32813 ft 552 kts 29°
2026-05-04 21:26 29.08806 -14.67074 33209 ft 556 kts 28°
2026-05-04 21:26 29.11993 -14.64652 33778 ft 556 kts 28°
2026-05-04 21:26 29.15217 -14.62200 34319 ft 556 kts 28°
2026-05-04 21:26 29.18441 -14.59747 34770 ft 557 kts 28°
2026-05-04 21:27 29.21670 -14.57289 35218 ft 557 kts 28°
2026-05-04 21:27 29.24913 -14.54819 35615 ft 559 kts 28°
2026-05-04 21:27 29.28157 -14.52346 36010 ft 560 kts 28°
2026-05-04 21:27 29.31404 -14.49869 36426 ft 561 kts 28°
2026-05-04 21:28 29.34651 -14.47389 36933 ft 560 kts 28°
2026-05-04 21:28 29.37892 -14.44912 37363 ft 560 kts 28°
2026-05-04 21:28 29.41133 -14.42434 37735 ft 561 kts 28°
2026-05-04 21:28 29.44380 -14.39950 38107 ft 561 kts 28°
2026-05-04 21:29 29.47629 -14.37461 38486 ft 562 kts 28°
2026-05-04 21:29 29.50880 -14.34970 38849 ft 562 kts 28°
2026-05-04 21:29 29.54129 -14.32477 39174 ft 561 kts 29°
2026-05-04 21:29 29.57368 -14.29990 39550 ft 559 kts 29°
2026-05-04 21:30 29.60551 -14.27543 39923 ft 557 kts 29°
2026-05-04 21:30 29.63776 -14.25064 40111 ft 558 kts 29°
2026-05-04 21:30 29.70202 -14.20117 40120 ft 555 kts 29°
2026-05-04 21:31 29.79833 -14.12687 40127 ft 556 kts 29°
2026-05-04 21:32 29.86260 -14.07722 40124 ft 556 kts 29°
2026-05-04 21:32 29.92690 -14.02745 40129 ft 556 kts 29°
2026-05-04 21:33 29.99109 -13.97769 40132 ft 556 kts 29°
2026-05-04 21:33 30.05531 -13.92782 40130 ft 556 kts 29°
2026-05-04 21:34 30.11939 -13.87799 40130 ft 556 kts 29°
2026-05-04 21:34 30.18358 -13.82798 40129 ft 556 kts 29°
2026-05-04 21:35 30.24779 -13.77789 40130 ft 557 kts 29°
2026-05-04 21:35 30.31150 -13.72809 40126 ft 556 kts 29°
2026-05-04 21:36 30.37600 -13.67761 40131 ft 556 kts 29°
2026-05-04 21:36 30.44003 -13.62741 40127 ft 556 kts 29°
2026-05-04 21:37 30.50418 -13.57742 40126 ft 554 kts 27°
2026-05-04 21:37 30.57083 -13.53335 40137 ft 550 kts 23°
2026-05-04 21:38 30.63823 -13.49155 40112 ft 548 kts 22°
2026-05-04 21:38 30.70523 -13.45006 40125 ft 549 kts 22°
2026-05-04 21:39 30.77255 -13.40796 40131 ft 550 kts 22°
2026-05-04 21:39 30.83990 -13.36558 40148 ft 549 kts 23°
2026-05-04 21:40 30.90707 -13.32319 40128 ft 548 kts 23°
2026-05-04 21:40 30.97409 -13.28085 40130 ft 547 kts 23°
2026-05-04 21:41 31.04061 -13.23879 40132 ft 547 kts 23°
2026-05-04 21:41 31.10750 -13.19642 40132 ft 547 kts 23°
2026-05-04 21:42 31.17426 -13.15406 40126 ft 545 kts 23°
2026-05-04 21:42 31.24083 -13.11174 40133 ft 544 kts 23°
2026-05-04 21:43 31.30738 -13.06939 40132 ft 545 kts 23°
2026-05-04 21:43 31.37384 -13.02702 40130 ft 545 kts 23°
2026-05-04 21:44 31.44045 -12.98448 40139 ft 544 kts 23°
2026-05-04 21:44 31.50674 -12.94206 40132 ft 543 kts 23°
2026-05-04 21:45 31.57303 -12.89960 40136 ft 542 kts 23°
2026-05-04 21:45 31.63928 -12.85709 40135 ft 542 kts 23°
2026-05-04 21:46 31.70554 -12.81450 40159 ft 542 kts 23°
2026-05-04 21:46 31.77120 -12.77221 40139 ft 540 kts 23°
2026-05-04 21:47 31.83712 -12.72969 40138 ft 540 kts 23°
2026-05-04 21:47 31.90296 -12.68717 40141 ft 540 kts 23°
2026-05-04 21:48 31.96879 -12.64458 40139 ft 540 kts 23°
2026-05-04 21:48 32.03459 -12.60193 40145 ft 538 kts 23°
2026-05-04 21:49 32.10013 -12.55937 40142 ft 536 kts 23°
2026-05-04 21:49 32.16540 -12.51693 40140 ft 536 kts 24°
2026-05-04 21:50 32.23076 -12.47438 40146 ft 536 kts 24°
2026-05-04 21:50 32.29572 -12.43200 40147 ft 535 kts 24°
2026-05-04 21:51 32.36072 -12.38949 40147 ft 533 kts 24°
2026-05-04 21:51 32.42550 -12.34710 40149 ft 532 kts 24°
2026-05-04 21:52 32.49034 -12.30460 40150 ft 532 kts 24°
2026-05-04 21:52 32.55516 -12.26203 40148 ft 532 kts 24°
2026-05-04 21:53 32.61990 -12.21944 40154 ft 530 kts 24°
2026-05-04 21:53 32.68429 -12.17700 40153 ft 529 kts 24°
2026-05-04 21:54 32.74881 -12.13443 40154 ft 529 kts 24°
2026-05-04 21:54 32.81316 -12.09189 40153 ft 529 kts 24°
2026-05-04 21:55 32.87712 -12.04953 40151 ft 529 kts 24°
2026-05-04 21:55 32.94155 -12.00708 40152 ft 527 kts 21°
2026-05-04 21:56 33.00974 -11.97660 40156 ft 517 kts 11°
2026-05-04 21:56 33.07826 -11.95259 40157 ft 517 kts
2026-05-04 21:57 33.14747 -11.92938 40160 ft 516 kts
2026-05-04 21:57 33.21656 -11.90610 40158 ft 515 kts
2026-05-04 21:58 33.28556 -11.88263 40160 ft 515 kts
2026-05-04 21:58 33.35453 -11.85905 40163 ft 515 kts
2026-05-04 21:59 33.42348 -11.83542 40164 ft 515 kts
2026-05-04 21:59 33.49235 -11.81178 40165 ft 514 kts
2026-05-04 22:00 33.56118 -11.78813 40168 ft 514 kts
2026-05-04 22:00 33.63004 -11.76444 40170 ft 514 kts
2026-05-04 22:01 33.69888 -11.74070 40170 ft 514 kts 10°
2026-05-04 22:01 33.76756 -11.71698 40170 ft 513 kts 10°
2026-05-04 22:02 33.83617 -11.69325 40170 ft 513 kts 10°
2026-05-04 22:02 33.90484 -11.66946 40170 ft 513 kts 10°
2026-05-04 22:03 33.97355 -11.64561 40172 ft 512 kts 10°
2026-05-04 22:03 34.04201 -11.62180 40173 ft 512 kts 10°
2026-05-04 22:04 34.11001 -11.59812 40173 ft 512 kts 10°
2026-05-04 22:04 34.17849 -11.57424 40173 ft 512 kts 10°
2026-05-04 22:05 34.23535 -11.55438 40173 ft 511 kts 10°
2026-05-04 22:05 34.30378 -11.53043 40176 ft 511 kts 10°
2026-05-04 22:06 34.37211 -11.50648 40174 ft 511 kts 10°
2026-05-04 22:06 34.44046 -11.48248 40176 ft 511 kts 10°
2026-05-04 22:07 34.50883 -11.45844 40189 ft 511 kts 10°
2026-05-04 22:07 34.57727 -11.43432 40180 ft 511 kts 10°
2026-05-04 22:08 34.64557 -11.41022 40183 ft 511 kts 10°
2026-05-04 22:08 34.71386 -11.38607 40204 ft 511 kts 10°
2026-05-04 22:09 34.78188 -11.36199 40184 ft 512 kts 10°
2026-05-04 22:09 34.85021 -11.33775 40179 ft 512 kts 10°
2026-05-04 22:10 34.91858 -11.31345 40179 ft 512 kts 10°
2026-05-04 22:10 34.98685 -11.28915 40204 ft 511 kts 10°
2026-05-04 22:11 35.05517 -11.26478 40184 ft 510 kts 10°
2026-05-04 22:11 35.12327 -11.24045 40183 ft 510 kts 10°
2026-05-04 22:12 35.19141 -11.21608 40184 ft 510 kts 10°
2026-05-04 22:12 35.25949 -11.19168 40192 ft 510 kts 10°
2026-05-04 22:13 35.32765 -11.16720 40183 ft 511 kts 10°
2026-05-04 22:13 35.39593 -11.14264 40187 ft 511 kts 11°
2026-05-04 22:14 35.46404 -11.11810 40185 ft 511 kts 11°
2026-05-04 22:14 35.53224 -11.09348 40184 ft 511 kts 11°
2026-05-04 22:15 35.60039 -11.06883 40185 ft 511 kts 11°
2026-05-04 22:15 35.66859 -11.04412 40184 ft 511 kts 11°
2026-05-04 22:16 35.73633 -11.01954 40182 ft 511 kts 11°
2026-05-04 22:16 35.80445 -10.99477 40189 ft 512 kts 10°
2026-05-04 22:17 35.87282 -10.96988 40191 ft 512 kts 10°
2026-05-04 22:17 35.94119 -10.94493 40189 ft 512 kts 10°
2026-05-04 22:18 36.00959 -10.91993 40197 ft 512 kts 10°
2026-05-04 22:18 36.07791 -10.89495 40186 ft 511 kts 10°
2026-05-04 22:19 36.14605 -10.86999 40183 ft 511 kts 10°
2026-05-04 22:19 36.21423 -10.84498 40180 ft 511 kts 10°
2026-05-04 22:20 36.28197 -10.82008 40193 ft 510 kts 10°
2026-05-04 22:20 36.35002 -10.79502 40182 ft 509 kts 10°
2026-05-04 22:21 36.41802 -10.76993 40184 ft 509 kts 10°
2026-05-04 22:21 36.48593 -10.74483 40181 ft 509 kts 10°
2026-05-04 22:22 36.55385 -10.71968 40182 ft 508 kts 10°
2026-05-04 22:22 36.62153 -10.69456 40181 ft 507 kts 10°
2026-05-04 22:23 36.68916 -10.66943 40180 ft 507 kts 10°
2026-05-04 22:23 36.75682 -10.64424 40193 ft 507 kts 10°
2026-05-04 22:24 36.82436 -10.61904 40180 ft 507 kts 10°
2026-05-04 22:24 36.89147 -10.59396 40178 ft 506 kts 10°
2026-05-04 22:25 36.95897 -10.56869 40177 ft 506 kts 10°
2026-05-04 22:25 37.02647 -10.54338 40189 ft 507 kts 10°
2026-05-04 22:26 37.09412 -10.51796 40179 ft 507 kts 10°
2026-05-04 22:26 37.16171 -10.49251 40179 ft 507 kts 10°
2026-05-04 22:27 37.22933 -10.46700 40176 ft 507 kts 10°
2026-05-04 22:27 37.29685 -10.44147 40173 ft 507 kts 10°
2026-05-04 22:28 37.36442 -10.41589 40171 ft 507 kts 10°
2026-05-04 22:28 37.43201 -10.39025 40172 ft 507 kts 10°
2026-05-04 22:29 37.49956 -10.36458 40195 ft 507 kts 10°
2026-05-04 22:29 37.56705 -10.33887 40170 ft 506 kts 10°
2026-05-04 22:30 37.63455 -10.31312 40173 ft 506 kts 10°
2026-05-04 22:30 37.70197 -10.28736 40173 ft 506 kts 10°
2026-05-04 22:31 37.76939 -10.26154 40175 ft 506 kts 10°
2026-05-04 22:31 37.83664 -10.23573 40168 ft 505 kts 10°
2026-05-04 22:32 37.90394 -10.20986 40166 ft 505 kts 10°
2026-05-04 22:32 37.97070 -10.18416 40168 ft 505 kts 10°
2026-05-04 22:33 38.03786 -10.15825 40167 ft 505 kts 10°
2026-05-04 22:33 38.10508 -10.13226 40167 ft 505 kts 10°
2026-05-04 22:34 38.17238 -10.10619 40168 ft 505 kts 10°
2026-05-04 22:34 38.23959 -10.08011 40181 ft 505 kts 11°
2026-05-04 22:35 38.30671 -10.05399 40167 ft 504 kts 11°
2026-05-04 22:35 38.37376 -10.02786 40169 ft 504 kts 11°
2026-05-04 22:36 38.44081 -10.00169 40169 ft 504 kts 11°
2026-05-04 22:36 38.50785 -9.97548 40166 ft 503 kts 11°
2026-05-04 22:37 38.57430 -9.94942 40165 ft 503 kts 11°
2026-05-04 22:37 38.64114 -9.92318 40165 ft 502 kts 11°
2026-05-04 22:38 38.70801 -9.89687 40180 ft 503 kts 11°
2026-05-04 22:38 38.77483 -9.87053 40166 ft 502 kts 11°
2026-05-04 22:39 38.84161 -9.84415 40165 ft 502 kts 11°
2026-05-04 22:39 38.90833 -9.81775 40163 ft 502 kts 11°
2026-05-04 22:40 38.97526 -9.79121 40165 ft 503 kts 11°
2026-05-04 22:40 39.04203 -9.76467 40162 ft 502 kts 11°
2026-05-04 22:41 39.10874 -9.73812 40162 ft 502 kts 11°
2026-05-04 22:41 39.17546 -9.71151 40187 ft 502 kts 11°
2026-05-04 22:42 39.24216 -9.68485 40157 ft 502 kts 11°
2026-05-04 22:42 39.30885 -9.65814 40157 ft 502 kts 11°
2026-05-04 22:43 39.37555 -9.63137 40155 ft 502 kts 11°
2026-05-04 22:43 39.44215 -9.60459 40163 ft 501 kts 11°
2026-05-04 22:44 39.50870 -9.57777 40155 ft 501 kts 11°
2026-05-04 22:44 39.57488 -9.55106 40154 ft 501 kts 11°
2026-05-04 22:45 39.64140 -9.52416 40176 ft 501 kts 11°
2026-05-04 22:45 39.74122 -9.48368 40153 ft 500 kts 11°
2026-05-04 22:46 39.80769 -9.45665 40155 ft 500 kts 11°
2026-05-04 22:46 39.87423 -9.42955 40166 ft 501 kts 11°
2026-05-04 22:47 39.94078 -9.40238 40149 ft 501 kts 11°
2026-05-04 22:47 40.00691 -9.37532 40146 ft 501 kts 11°
2026-05-04 22:48 40.07337 -9.34808 40146 ft 501 kts 11°
2026-05-04 22:48 40.13974 -9.32082 40151 ft 500 kts 12°
2026-05-04 22:49 40.20611 -9.29350 40147 ft 499 kts 12°
2026-05-04 22:49 40.27237 -9.26617 40147 ft 499 kts 12°
2026-05-04 22:50 40.33863 -9.23880 40147 ft 499 kts 12°
2026-05-04 22:50 40.40487 -9.21136 40140 ft 499 kts 12°
2026-05-04 22:51 40.47105 -9.18390 40144 ft 499 kts 12°
2026-05-04 22:51 40.53729 -9.15636 40144 ft 499 kts 12°
2026-05-04 22:52 40.59236 -9.13342 40147 ft 499 kts 12°
2026-05-04 22:52 40.65852 -9.10580 40148 ft 499 kts 12°
2026-05-04 22:53 40.73557 -9.07356 40132 ft 500 kts 12°
2026-05-04 22:53 40.79112 -9.05027 40148 ft 501 kts 12°
2026-05-04 22:54 40.85756 -9.02237 40132 ft 500 kts 12°
2026-05-04 22:54 40.92390 -8.99445 40130 ft 500 kts 12°
2026-05-04 22:55 40.98973 -8.96668 40132 ft 500 kts 12°
2026-05-04 22:55 41.05599 -8.93867 40128 ft 499 kts 13°
2026-05-04 22:56 41.12219 -8.91063 40113 ft 499 kts 13°
2026-05-04 22:56 41.18844 -8.88250 40108 ft 499 kts 13°
2026-05-04 22:57 41.25455 -8.85439 40114 ft 499 kts 13°
2026-05-04 22:57 41.32071 -8.82617 40106 ft 499 kts 13°
2026-05-04 22:58 41.38684 -8.79792 40107 ft 499 kts 13°
2026-05-04 22:58 41.45289 -8.76964 40121 ft 499 kts 13°
2026-05-04 22:59 41.51905 -8.74126 40118 ft 499 kts 13°
2026-05-04 22:59 41.58514 -8.71284 40123 ft 499 kts 13°
2026-05-04 23:00 41.65089 -8.68451 40113 ft 500 kts 13°
2026-05-04 23:00 41.71705 -8.65595 40117 ft 499 kts 14°
2026-05-04 23:01 41.78319 -8.62732 40110 ft 499 kts 14°
2026-05-04 23:01 41.84938 -8.59860 40110 ft 499 kts 14°
2026-05-04 23:02 41.91490 -8.56659 40113 ft 502 kts 18°
2026-05-04 23:02 41.97954 -8.53057 40104 ft 502 kts 19°
2026-05-04 23:03 42.04414 -8.49478 40109 ft 502 kts 18°
2026-05-04 23:03 42.10892 -8.45965 40114 ft 502 kts 18°
2026-05-04 23:04 42.17328 -8.42500 40106 ft 502 kts 18°
2026-05-04 23:04 42.23822 -8.39000 40105 ft 502 kts 18°
2026-05-04 23:05 42.30300 -8.35497 40103 ft 502 kts 18°
2026-05-04 23:05 42.36780 -8.31983 40115 ft 502 kts 19°
2026-05-04 23:06 42.43269 -8.28457 40109 ft 503 kts 19°
2026-05-04 23:06 42.49767 -8.24917 40104 ft 503 kts 19°
2026-05-04 23:07 42.56262 -8.21371 40108 ft 503 kts 19°
2026-05-04 23:07 42.62750 -8.17820 40109 ft 503 kts 19°
2026-05-04 23:08 42.69241 -8.14261 40111 ft 503 kts 19°
2026-05-04 23:08 42.75685 -8.10720 40113 ft 503 kts 19°
2026-05-04 23:09 42.82163 -8.07151 40109 ft 502 kts 19°
2026-05-04 23:09 42.88646 -8.03572 40100 ft 502 kts 19°
2026-05-04 23:10 42.95128 -7.99984 40107 ft 502 kts 19°
2026-05-04 23:10 43.01608 -7.96390 40097 ft 502 kts 19°
2026-05-04 23:11 43.08084 -7.92790 40092 ft 502 kts 19°
2026-05-04 23:11 43.14554 -7.89185 40091 ft 502 kts 19°
2026-05-04 23:12 43.20980 -7.85597 40092 ft 501 kts 20°
2026-05-04 23:12 43.27433 -7.81984 40084 ft 501 kts 20°
2026-05-04 23:13 43.33893 -7.78360 40082 ft 501 kts 20°
2026-05-04 23:13 43.40335 -7.74738 40086 ft 500 kts 20°
2026-05-04 23:14 43.46771 -7.71109 40074 ft 500 kts 20°
2026-05-04 23:14 43.53211 -7.67471 40069 ft 500 kts 20°
2026-05-04 23:15 43.59643 -7.63829 40068 ft 500 kts 20°
2026-05-04 23:15 43.66073 -7.60180 40066 ft 499 kts 20°
2026-05-04 23:16 43.72505 -7.56522 40059 ft 501 kts 20°
2026-05-04 23:16 43.78918 -7.52866 40050 ft 501 kts 20°
2026-05-04 23:17 43.85348 -7.49191 40048 ft 501 kts 20°
2026-05-04 23:17 43.91779 -7.45506 40048 ft 501 kts 20°
2026-05-04 23:18 43.97948 -7.41964 40060 ft 501 kts 20°
2026-05-04 23:18 44.04380 -7.38263 40042 ft 500 kts 21°
2026-05-04 23:19 44.10807 -7.34554 40040 ft 500 kts 21°
2026-05-04 23:19 44.17226 -7.30843 40040 ft 500 kts 21°
2026-05-04 23:20 44.23649 -7.27121 40037 ft 499 kts 21°
2026-05-04 23:20 44.30061 -7.23396 40037 ft 499 kts 21°
2026-05-04 23:21 44.36474 -7.19661 40031 ft 500 kts 21°
2026-05-04 23:21 44.42892 -7.15915 40030 ft 500 kts 21°
2026-05-04 23:22 44.49310 -7.12159 40026 ft 500 kts 21°
2026-05-04 23:22 44.55723 -7.08397 40030 ft 499 kts 21°
2026-05-04 23:23 44.62134 -7.04628 40029 ft 499 kts 21°
2026-05-04 23:23 44.68545 -7.00849 40026 ft 499 kts 21°
2026-05-04 23:24 44.74913 -6.97088 40027 ft 499 kts 21°
2026-05-04 23:24 44.81319 -6.93266 40021 ft 500 kts 24°
2026-05-04 23:25 44.87277 -6.88201 40027 ft 500 kts 33°
2026-05-04 23:25 44.92974 -6.82547 40020 ft 501 kts 34°
2026-05-04 23:26 44.98645 -6.76772 40018 ft 502 kts 35°
2026-05-04 23:26 45.04310 -6.70997 40015 ft 501 kts 35°
2026-05-04 23:27 45.09965 -6.65239 40015 ft 501 kts 34°
2026-05-04 23:27 45.15625 -6.59473 40012 ft 501 kts 35°
2026-05-04 23:28 45.21244 -6.53736 40015 ft 501 kts 35°
2026-05-04 23:28 45.26895 -6.47950 40016 ft 501 kts 35°
2026-05-04 23:29 45.32545 -6.42149 40016 ft 501 kts 35°
2026-05-04 23:29 45.38193 -6.36336 40025 ft 501 kts 35°
2026-05-04 23:30 45.43832 -6.30519 40015 ft 500 kts 35°
2026-05-04 23:30 45.49464 -6.24693 40018 ft 500 kts 35°
2026-05-04 23:31 45.55096 -6.18854 40012 ft 500 kts 35°
2026-05-04 23:31 45.60690 -6.13037 40012 ft 500 kts 36°
2026-05-04 23:32 45.66308 -6.07182 40009 ft 500 kts 36°
2026-05-04 23:32 45.71930 -6.01308 40010 ft 499 kts 36°
2026-05-04 23:33 45.77537 -5.95434 40012 ft 499 kts 36°
2026-05-04 23:33 45.83133 -5.89558 40014 ft 499 kts 36°
2026-05-04 23:34 45.88733 -5.83662 40009 ft 499 kts 36°
2026-05-04 23:34 45.94343 -5.77740 40009 ft 500 kts 36°
2026-05-04 23:35 45.99944 -5.71812 40009 ft 499 kts 36°
2026-05-04 23:35 46.05536 -5.65878 40010 ft 499 kts 36°
2026-05-04 23:36 46.11116 -5.59943 40010 ft 498 kts 36°
2026-05-04 23:36 46.16689 -5.53999 40010 ft 499 kts 36°
2026-05-04 23:37 46.22265 -5.48037 40007 ft 499 kts 36°
2026-05-04 23:37 46.27843 -5.42057 40007 ft 499 kts 37°
2026-05-04 23:38 46.32469 -5.37086 40007 ft 499 kts 37°
2026-05-04 23:38 46.38036 -5.31089 40007 ft 499 kts 37°
2026-05-04 23:39 46.43597 -5.25083 40007 ft 499 kts 37°
2026-05-04 23:39 46.49154 -5.19067 40007 ft 499 kts 37°
2026-05-04 23:40 46.54710 -5.13036 40007 ft 499 kts 37°
2026-05-04 23:40 46.60259 -5.06995 40007 ft 499 kts 37°
2026-05-04 23:41 46.65812 -5.00935 40004 ft 499 kts 37°
2026-05-04 23:41 46.71360 -4.94865 40001 ft 498 kts 37°
2026-05-04 23:42 46.76905 -4.88782 40002 ft 498 kts 37°
2026-05-04 23:42 46.82402 -4.82735 40002 ft 499 kts 37°
2026-05-04 23:43 46.87951 -4.76616 40001 ft 499 kts 37°
2026-05-04 23:43 46.93484 -4.70497 39999 ft 498 kts 37°
2026-05-04 23:44 46.99017 -4.64362 39996 ft 498 kts 37°
2026-05-04 23:44 47.04539 -4.58223 39996 ft 498 kts 37°
2026-05-04 23:45 47.10060 -4.52070 39996 ft 498 kts 38°
2026-05-04 23:45 47.15572 -4.45909 39996 ft 497 kts 38°
2026-05-04 23:46 47.21063 -4.39755 39993 ft 497 kts 38°
2026-05-04 23:46 47.26566 -4.33571 39993 ft 497 kts 38°
2026-05-04 23:47 47.32070 -4.27371 39994 ft 497 kts 38°
2026-05-04 23:47 47.37551 -4.21180 39993 ft 496 kts 38°
2026-05-04 23:48 47.42992 -4.15016 39991 ft 496 kts 38°
2026-05-04 23:48 47.48504 -4.08755 39993 ft 497 kts 38°
2026-05-04 23:49 47.53952 -4.02551 39991 ft 497 kts 38°
2026-05-04 23:49 47.59430 -3.96296 39988 ft 497 kts 38°
2026-05-04 23:50 47.64909 -3.90022 39988 ft 497 kts 38°
2026-05-04 23:50 47.70369 -3.83753 39988 ft 497 kts 38°
2026-05-04 23:51 47.75840 -3.77455 39983 ft 497 kts 38°
2026-05-04 23:51 47.81305 -3.71145 39988 ft 498 kts 39°
2026-05-04 23:52 47.86776 -3.64812 39985 ft 498 kts 39°
2026-05-04 23:52 47.92234 -3.58476 39988 ft 498 kts 39°
2026-05-04 23:53 47.97697 -3.52118 39984 ft 498 kts 39°
2026-05-04 23:53 48.03147 -3.45757 39990 ft 497 kts 39°
2026-05-04 23:54 48.08588 -3.39389 39988 ft 496 kts 39°
2026-05-04 23:54 48.14030 -3.33001 39993 ft 498 kts 39°
2026-05-04 23:55 48.19478 -3.26589 39993 ft 498 kts 39°
2026-05-04 23:56 48.27630 -3.16962 39993 ft 497 kts 39°
2026-05-04 23:56 48.33067 -3.10518 39993 ft 497 kts 39°
2026-05-04 23:57 48.38485 -3.04079 39995 ft 497 kts 39°
2026-05-04 23:57 48.43874 -2.97656 39997 ft 497 kts 39°
2026-05-04 23:58 48.49297 -2.91175 39996 ft 497 kts 39°
2026-05-04 23:58 48.54714 -2.84684 39988 ft 497 kts 39°
2026-05-04 23:59 48.60127 -2.78178 39997 ft 497 kts 39°
2026-05-04 23:59 48.65542 -2.71652 39998 ft 497 kts 39°
2026-05-05 00:00 48.70943 -2.65123 40001 ft 497 kts 39°
2026-05-05 00:00 48.75586 -2.59497 39991 ft 497 kts 39°
2026-05-05 00:01 48.81018 -2.52961 39998 ft 499 kts 39°
2026-05-05 00:01 48.86537 -2.46547 39996 ft 500 kts 38°
2026-05-05 00:02 48.92026 -2.40176 39994 ft 500 kts 38°
2026-05-05 00:02 48.97570 -2.33689 39996 ft 500 kts 38°
2026-05-05 00:03 49.03043 -2.27244 39992 ft 500 kts 38°
2026-05-05 00:03 49.08538 -2.20750 39991 ft 499 kts 39°
2026-05-05 00:04 49.14013 -2.14264 39991 ft 498 kts 39°
2026-05-05 00:04 49.16737 -2.11030 39707 ft 493 kts 39°
2026-05-05 00:04 49.19437 -2.07822 39115 ft 492 kts 39°
2026-05-05 00:04 49.22214 -2.04775 38410 ft 493 kts 33°
2026-05-05 00:05 49.25168 -2.02082 37539 ft 494 kts 31°
2026-05-05 00:05 49.28164 -1.99465 36592 ft 498 kts 31°
2026-05-05 00:05 49.31199 -1.96872 35646 ft 502 kts 30°
2026-05-05 00:05 49.34269 -1.94276 35131 ft 505 kts 30°
2026-05-05 00:06 49.37366 -1.91660 34878 ft 509 kts 30°
2026-05-05 00:06 49.40474 -1.89032 34632 ft 510 kts 30°
2026-05-05 00:06 49.43580 -1.86395 34404 ft 511 kts 30°
2026-05-05 00:06 49.46691 -1.83744 34177 ft 511 kts 30°
2026-05-05 00:07 49.49796 -1.81092 34017 ft 508 kts 31°
2026-05-05 00:07 49.55969 -1.75871 33999 ft 507 kts 27°
2026-05-05 00:08 49.62677 -1.72565 33995 ft 510 kts
2026-05-05 00:08 49.69759 -1.71593 33994 ft 511 kts
2026-05-05 00:09 49.76817 -1.71027 33994 ft 510 kts
2026-05-05 00:09 49.83896 -1.70498 33996 ft 508 kts
2026-05-05 00:10 49.90955 -1.69927 33999 ft 508 kts
2026-05-05 00:10 49.98030 -1.69264 33902 ft 510 kts
2026-05-05 00:10 50.01525 -1.68255 33613 ft 510 kts 15°
2026-05-05 00:11 50.04924 -1.66746 32943 ft 505 kts 18°
2026-05-05 00:11 50.08277 -1.65150 32154 ft 503 kts 18°
2026-05-05 00:11 50.11624 -1.63535 31343 ft 502 kts 18°
2026-05-05 00:11 50.14959 -1.61919 30513 ft 502 kts 19°
2026-05-05 00:12 50.18294 -1.60300 29671 ft 501 kts 19°
2026-05-05 00:12 50.21595 -1.58694 29093 ft 493 kts 18°
2026-05-05 00:12 50.24843 -1.57112 28552 ft 485 kts 18°
2026-05-05 00:12 50.28041 -1.55553 27980 ft 478 kts 18°
2026-05-05 00:13 50.31203 -1.54011 27422 ft 472 kts 19°
2026-05-05 00:13 50.34316 -1.52486 26864 ft 465 kts 19°
2026-05-05 00:13 50.37385 -1.50980 26321 ft 461 kts 19°
2026-05-05 00:13 50.40399 -1.49500 25782 ft 458 kts 19°
2026-05-05 00:14 50.43422 -1.48013 25249 ft 452 kts 19°
2026-05-05 00:14 50.46404 -1.46545 24699 ft 447 kts 19°
2026-05-05 00:14 50.49371 -1.45083 24185 ft 445 kts 19°
2026-05-05 00:14 50.52307 -1.43621 23656 ft 440 kts 20°
2026-05-05 00:15 50.55093 -1.41767 23094 ft 432 kts 28°
2026-05-05 00:15 50.57722 -1.39569 22540 ft 425 kts 30°
2026-05-05 00:15 50.60308 -1.37337 22036 ft 422 kts 30°
2026-05-05 00:15 50.62880 -1.35117 21515 ft 419 kts 30°
2026-05-05 00:16 50.65414 -1.32932 21177 ft 409 kts 30°
2026-05-05 00:16 50.67863 -1.30821 20922 ft 396 kts 30°
2026-05-05 00:16 50.70244 -1.28768 20697 ft 383 kts 30°
2026-05-05 00:16 50.72553 -1.26774 20352 ft 374 kts 30°
2026-05-05 00:17 50.74787 -1.24841 19916 ft 368 kts 30°
2026-05-05 00:17 50.77011 -1.22913 19082 ft 356 kts 31°
2026-05-05 00:17 50.79069 -1.20878 18149 ft 350 kts 36°
2026-05-05 00:17 50.81051 -1.18763 17610 ft 344 kts 36°
2026-05-05 00:18 50.83046 -1.16649 17151 ft 343 kts 35°
2026-05-05 00:18 50.85043 -1.14554 16742 ft 345 kts 35°
2026-05-05 00:18 50.87044 -1.12468 16286 ft 343 kts 35°
2026-05-05 00:18 50.89030 -1.10404 15753 ft 341 kts 34°
2026-05-05 00:19 50.91002 -1.08358 15293 ft 337 kts 35°
2026-05-05 00:19 50.92951 -1.06336 14823 ft 334 kts 34°
2026-05-05 00:19 50.94887 -1.04326 14355 ft 332 kts 34°
2026-05-05 00:19 50.96811 -1.02326 13905 ft 330 kts 34°
2026-05-05 00:20 50.98729 -1.00331 13407 ft 328 kts 34°
2026-05-05 00:20 51.00555 -0.98192 13076 ft 322 kts 43°
2026-05-05 00:20 51.02096 -0.95711 12860 ft 310 kts 49°
2026-05-05 00:20 51.03523 -0.93189 12441 ft 305 kts 49°
2026-05-05 00:21 51.05115 -0.91002 12028 ft 303 kts 30°
2026-05-05 00:21 51.07099 -0.89970 11603 ft 301 kts
2026-05-05 00:21 51.09180 -0.89797 11157 ft 299 kts
2026-05-05 00:21 51.11253 -0.89791 10712 ft 298 kts
2026-05-05 00:22 51.13327 -0.89792 10302 ft 295 kts
2026-05-05 00:22 51.15367 -0.89784 9877 ft 293 kts
2026-05-05 00:22 51.17397 -0.89770 9369 ft 288 kts
2026-05-05 00:22 51.19392 -0.89745 8748 ft 287 kts
2026-05-05 00:23 51.21376 -0.89707 8335 ft 283 kts 359°
2026-05-05 00:23 51.23322 -0.89659 8063 ft 274 kts
2026-05-05 00:23 51.25165 -0.89605 7860 ft 259 kts
2026-05-05 00:23 51.26911 -0.89550 7679 ft 249 kts
2026-05-05 00:24 51.28627 -0.89493 7389 ft 245 kts
2026-05-05 00:24 51.30323 -0.89426 7080 ft 241 kts
2026-05-05 00:24 51.31980 -0.89347 6614 ft 239 kts
2026-05-05 00:24 51.33640 -0.89263 6276 ft 238 kts
2026-05-05 00:25 51.35292 -0.89155 5949 ft 236 kts
2026-05-05 00:25 51.36377 -0.89076 5732 ft 235 kts
2026-05-05 00:25 51.37996 -0.88959 5413 ft 228 kts
2026-05-05 00:25 51.39522 -0.88845 5208 ft 211 kts
2026-05-05 00:26 51.40937 -0.88738 4970 ft 198 kts
2026-05-05 00:26 51.42286 -0.88577 4581 ft 193 kts
2026-05-05 00:26 51.43455 -0.87548 4141 ft 197 kts 46°
2026-05-05 00:26 51.44215 -0.85748 3917 ft 194 kts 59°
2026-05-05 00:27 51.44845 -0.83849 3661 ft 192 kts 60°
2026-05-05 00:27 51.45455 -0.81949 3419 ft 190 kts 60°
2026-05-05 00:27 51.46016 -0.80033 3168 ft 189 kts 68°
2026-05-05 00:27 51.46316 -0.77992 3004 ft 188 kts 82°
2026-05-05 00:28 51.46377 -0.75977 3019 ft 172 kts 87°
2026-05-05 00:28 51.46384 -0.74089 3007 ft 168 kts 87°
2026-05-05 00:28 51.46389 -0.72218 2999 ft 168 kts 87°
2026-05-05 00:28 51.46397 -0.70345 2859 ft 167 kts 87°
2026-05-05 00:29 51.46408 -0.68480 2623 ft 166 kts 88°
2026-05-05 00:29 51.46414 -0.66642 2386 ft 165 kts 87°
2026-05-05 00:29 51.46420 -0.64806 2163 ft 164 kts 87°
2026-05-05 00:29 51.46426 -0.62984 1928 ft 163 kts 88°
2026-05-05 00:30 51.46433 -0.61177 1726 ft 162 kts 88°
2026-05-05 00:30 51.46445 -0.59383 1474 ft 160 kts 87°
2026-05-05 00:30 51.46466 -0.57652 1285 ft 149 kts 87°
2026-05-05 00:30 51.46473 -0.56037 1061 ft 142 kts 89°
2026-05-05 00:31 51.46439 -0.54483 806 ft 137 kts 87°
2026-05-05 00:31 51.46436 -0.52993 594 ft 131 kts 87°
2026-05-05 00:31 51.46442 -0.51557 475 ft 129 kts 88°
2026-05-05 00:31 51.46463 -0.50114 332 ft 129 kts 86°
2026-05-05 00:32 51.46470 -0.48680 204 ft 131 kts 88°
2026-05-05 00:32 51.46483 -0.47239 96 ft 122 kts 87°
2026-05-05 00:32 51.46487 -0.46180 97 ft 68 kts 90°
2026-05-05 00:32 51.46489 -0.45662 91 ft 38 kts 89°
2026-05-05 00:33 51.46527 -0.45261 97 ft 31 kts 70°
2026-05-05 00:33 51.46613 -0.45098 97 ft 0 kts 21°
2026-05-05 00:34 51.46623 -0.45094 96 ft 5 kts 14°
2026-05-05 00:34 51.46716 -0.45075 95 ft 16 kts 344°
2026-05-05 00:35 51.46748 -0.45206 95 ft 25 kts 267°
2026-05-05 00:35 51.46751 -0.45492 92 ft 26 kts 271°
2026-05-05 00:35 51.46751 -0.45807 94 ft 26 kts 270°
2026-05-05 00:35 51.46748 -0.46034 95 ft 23 kts 269°
2026-05-05 00:36 51.46746 -0.46329 96 ft 27 kts 270°
2026-05-05 00:36 51.46748 -0.46653 96 ft 31 kts 270°
2026-05-05 00:36 51.46748 -0.46806 95 ft 0 kts 270°
2026-05-05 00:37 51.46748 -0.46827 95 ft 6 kts 270°
2026-05-05 00:37 51.46748 -0.46956 95 ft 16 kts 270°
2026-05-05 00:37 51.46747 -0.47185 96 ft 24 kts 269°
2026-05-05 00:38 51.46746 -0.47456 96 ft 28 kts 270°
2026-05-05 00:38 51.46745 -0.47785 94 ft 26 kts 270°
2026-05-05 00:38 51.46744 -0.48096 94 ft 30 kts 270°
2026-05-05 00:38 51.46758 -0.48327 96 ft 8 kts 309°
2026-05-05 00:39 51.46808 -0.48351 95 ft 10 kts 353°
2026-05-05 00:39 51.46897 -0.48355 94 ft 15 kts
2026-05-05 00:39 51.47016 -0.48349 95 ft 10 kts 15°
2026-05-05 00:39 51.47036 -0.48301 94 ft 7 kts 62°
2026-05-05 00:40 51.47043 -0.48238 95 ft 0 kts 85°